Powrót do katalogu

STARLINK-4725

AktywnyŁącznośćVLEO
NORAD 53700·PAYLOAD·🇺🇸 United States

Wystrzelony Sep 5, 2022 z Cape Canaveral Space Force Station

Loading…

Następne Przeloty (najbliższe 24 godziny)

TLE

ŚwieżeSource: CelesTrak SupGP

Epoka: Sep 14, 2026, 20:49 UTC

1 53700C 22107A   26257.86784722  .00660090  00000+0  20386-1 0  2570
2 53700  53.1609 112.0616 0001400  85.6458 304.9112 15.32660917    10

Śledź STARLINK-4725 w czasie rzeczywistym z AllMySat

Download on the App Store